Location: Unspecified
(43.4680°N, 87.1740°E)
Time: 16:00:18
(UTC+00:00)

Cosmos 1626 - Pass Details

Date: 17 January 2020
Orbit: 493 x 495 km, 82.5° (Epoch: 18 February)

Event Time Altitude Azimuth Distance (km) Brightness Sun altitude
Exits shadow 23:02:10 25° 129° (SE) 1,039 4.2 -28.2°
Drops below altitude 10° 23:04:00 10° 148° (SSE) 1,688 5.2 -27.9°
Sets 23:06:12 0° 156° (SSE) 2,565 6.1 -27.5°
